Starlink 30174

operational
NORAD ID: 57609 Int'l Des: 2023-119 Owner: SPXS Country: US Constellation: starlink
LEOCIRCULAR

Starlink 30174について

説明を読み込み中...

リアルタイム位置

3D地球を読み込み中...

次回通過

高度履歴

Altitude vs Time

uPlot chart will show altitude changes over time

軌道要素

1 57609U 23119H 26034.96535535 -.00000567 00000-0 -26880-4 0 9997
2 57609 43.0032 264.7923 0000669 249.6446 110.4324 15.02540088138011
Epoch: Feb 3, 2026 • Age: 15 hours

現在のステータス

高度 566.4 km
速度 7.58 km/s
衛星直下点 -29.14°S, 125.14°E
打ち上げ日 Aug 11, 2023
運用期間 2.4 years
タイプ internet

技術仕様

分類 Payload
質量 730.00 kg
乾燥質量 700.00 kg
総質量 730.00 kg
長さ 0.30 m
直径 4.10 m
スパン 29.00 m
形状 Box + pan
製造者 SPXS
バスタイプ Starlink V2M
フェーズステータス In Orbit
所有者/国 SPXS/US

大規模コンステレーション

Loading constellations...